668  
ASUS44 KFWD 201915  
RWRTX  
NORTH TEXAS HOURLY WEATHER ROUNDUP  
NATIONAL WEATHER SERVICE FORT WORTH TX  
200 PM CDT THU JUN 20 2019  
 
NOTE: "FAIR" INDICATES FEW OR NO CLOUDS BELOW 12,000 FEET WITH NO  
SIGNIFICANT WEATHER AND/OR S TO VISIBILITY
.  
 
TXZ118-119-202000-  
DALLAS/FORT WORTH METROPLEX  
 
CITY SKY/WX TMP DP RH WIND PRES REMARKS
 
DFW AIRPORT FAIR 93 76 57 S18 29.74F HX 105  
DALLAS LOVE FAIR 94 75 54 S12G23 29.75F HX 105  
FTW MEACHAM FAIR 92 76 59 S14 29.75F HX 104  
DAL-EXECUTIVE FAIR 92 76 59 S16 29.76F HX 104  
FTW-ALLIANCE FAIR 94 75 54 S17G23 29.75F HX 105  
FTW-NAS-JRB FAIR 94 76 55 S15 29.76F HX 106  
FTW-SPINKS SUNNY 95 75 52 S15G21 29.78F HX 107  
ARLINGTON FAIR 93 77 59 S12G21 29.76F HX 107  
GRAND PRAIRIE SUNNY 91 73 55 SE12G18 29.78F HX 100  
ADDISON SUNNY 93 75 55 SW9G17 29.76F HX 104  
MESQUITE SUNNY 91 75 59 S15G22 29.78F HX 102  
LANCASTER FAIR 92 76 58 S10G20 29.78F HX 104  

 
 
TXZ091>094-102>105-117-120-121-131>134-202000-  
NORTH CENTRAL TEXAS  
 
CITY SKY/WX TMP DP RH WIND PRES REMARKS
 
SHRMAN/DENISON SUNNY 93 73 52 S13G18 29.77F HX 102  
GAINESVILLE FAIR 91 76 61 CALM 29.77F HX 102  
BOWIE FAIR 88 76 67 S14G21 29.77S HX 99  
BRIDGEPORT FAIR 90 74 60 S10 29.77F HX 99  
DECATUR FAIR 90 74 60 S12 29.77F HX 99  
DENTON FAIR 93 76 57 S12 29.75F HX 105  
MCKINNEY FAIR 93 76 57 S13 29.76F HX 105  
BONHAM FAIR 90 72 56 SE10 29.78S HX 97  
GREENVILLE FAIR 91 73 55 SE12 29.79F HX 100  
ROCKWALL FAIR 91 76 60 S13G21 29.77F HX 103  
TERRELL FAIR 94 76 55 S13G21 29.78F HX 106  
WAXAHACHIE FAIR 92 76 59 S15 29.78F HX 105  
CLEBURNE FAIR 91 79 66 S16G25 29.79F HX 107  
GRANBURY FAIR 95 74 51 S13G18 29.78F HX 105  

 
 
TXZ083>090-098>101-113>116-127>130-139>142-154-155-202000-  
WESTERN NORTH TEXAS  
 
CITY SKY/WX TMP DP RH WIND PRES REMARKS
 
WICHITA FALLS FAIR 91 75 59 S17G23 29.73S HX 101  
WF-KICKAPOO FAIR 91 74 57 S14 29.76S HX 101  
VERNON FAIR 94 69 44 S10 29.73F HX 99  
ABILENE FAIR 98 70 40 S13 29.78F HX 105  
ABILENE-DYESS PTSUNNY 97 65 34 S14 29.77S HX 100  
GRAHAM FAIR 91 79 66 S12 29.74S HX 107  
BRECKENRIDGE FAIR 95 73 49 SW15 29.76S HX 104  
CISCO FAIR 93 77 59 S16 29.80F HX 107  
EASTLAND FAIR 91 76 59 S15G22 29.78F HX 103  
RANGER FAIR 91 76 61 S10G21 29.79F HX 102  
MINERAL WELLS FAIR 91 76 61 S14G23 29.75F HX 103  
STEPHENVILLE FAIR 92 75 57 S13G20 29.82S HX 103  
COMANCHE FAIR 92 77 59 S20 29.80F HX 105  
BROWNWOOD FAIR 93 73 52 SW12G21 29.79F HX 102  
COLEMAN FAIR 95 73 48 S14G20 29.80F HX 104  
BRADY FAIR 95 72 46 SW15G23 29.82F HX 103  

 
 
TXZ143>147-156>162-174-175-202000-  
CENTRAL TEXAS  
 
CITY SKY/WX TMP DP RH WIND PRES REMARKS
 
WACO FAIR 94 76 55 S16 29.78F HX 106  
WACO-TSTC SUNNY 93 75 55 S16G23 29.79F HX 104  
HILLSBORO FAIR 92 77 62 S18G28 29.78F HX 105  
CORSICANA FAIR 93 77 59 S15 29.80F HX 107  
MEXIA FAIR 90 76 64 S16G23 29.80S HX 102  
HEARNE FAIR 91 80 69 S14G22 29.82F HX 109  
CAMERON FAIR 91 77 62 S13G20 29.81F HX 105  
TEMPLE FAIR 91 79 67 S22 29.80F HX 107  
KILLEEN FAIR 92 74 55 S14 29.80F HX 102  
KILLEEN-SKYLRK FAIR 94 76 55 MISG 29.81F HX 106  
FORT HOOD FAIR 93 74 54 S17 29.77F HX 102  
GATESVILLE FAIR 93 75 55 SE14 29.81F HX 104  
HAMILTON FAIR 93 76 56 S18 29.81F HX 105  

 
 
TXZ095>097-106>112-122>126-135>138-148>153-164>167-202000-  
EAST TEXAS  
 
CITY SKY/WX TMP DP RH WIND PRES REMARKS
 
PARIS FAIR 88 75 65 SE10 29.81F HX 97  
SULPHUR SPRNGS FAIR 92 70 49 S9 29.81F HX 98  
MOUNT PLEASANT FAIR 88 72 59 S8 29.82F HX 95  
GILMER FAIR 88 73 60 S3 29.82F HX 96  
MINEOLA FAIR 90 75 62 S6 29.80F HX 100  
TYLER FAIR 92 72 51 S12 29.81F HX 99  
LONGVIEW FAIR 90 76 63 S12 29.82F HX 101  
MARSHALL FAIR 87 73 61 SW7 29.86F HX 94  
ATHENS FAIR 91 75 59 S12G17 29.79S HX 102  
PALESTINE FAIR 91 77 62 S8 29.83F HX 104  
JACKSONVILLE FAIR 90 75 61 S12 29.86S HX 100  
HENDERSON FAIR 89 75 64 S7 29.84F HX 99  
NACOGDOCHES FAIR 92 79 65 S12 29.84F HX 108  
LUFKIN FAIR 90 74 59 S14 29.84F HX 99  

 
 
SUPPLEMENTAL OBSERVATIONS (NWS FORT WORTH AREA)  
 
CITY SKY/WX TMP DP RH WIND PRES REMARKS
 
CADDO GRASSLND N/A 90 70 51 S8 N/A HX 95  
LBJ GRASSLAND N/A 91 75 59 S12 N/A HX 102  
POSSUM KINGDOM N/A 95 75 52 S12 N/A HX 107  
GRANBURY N/A 93 73 52 S15G24 N/A HX 102  
COMANCHE N/A 93 77 59 S17G24 N/A HX 107  
MCGREGOR N/A 93 77 59 S16G24 N/A HX 107  
TEMPLE N/A 90 75 62 S16G23 N/A HX 100  
LAKE LIMESTONE N/A 91 77 62 S13G24 N/A HX 105  
PALESTINE N/A 91 75 59 S6G14 N/A HX 102  

 
 
SUPPLEMENTAL OBSERVATIONS (NWS NORMAN AREA)  
 
CITY SKY/WX TMP DP RH WIND PRES REMARKS
 
GOODLETT N/A 95 66 38 S8 29.72S HX 98  
ODELL N/A 92 71 50 S8 29.73F HX 98  
CROWELL N/A 96 67 39 S14 29.73S HX 100  
KNOX CITY N/A 97 69 39 S9 29.73F HX 102  
SEYMOUR N/A 96 70 42 S7 29.72F HX 101  
MILLERS CREEK N/A 97 75 49 S10 N/A HX 109  

 
 
SUPPLEMENTAL OBSERVATIONS (NWS SAN ANGELO AREA)  
 
CITY SKY/WX TMP DP RH WIND PRES REMARKS
 
WEINERT N/A 98 65 33 SW14 29.73F HX 101  
HASKELL N/A 100 60 26 S14 29.73F HX 101  
THROCKMORTON N/A 96 77 54 S8 29.74F HX 110  
STAMFORD N/A 98 70 39 S9 29.75S HX 105  
CLYDE N/A 95 72 47 S14 29.80F HX 103  
HAMBY N/A 99 66 34 S16 N/A HX 102  
IVIE RESERVOIR N/A 99 68 36 S13 N/A HX 104  
COLORADO BEND N/A 97 75 49 S13G24 N/A HX 109  

 
 
SUPPLEMENTAL OBSERVATIONS (NWS SHREVEPORT AREA)  
 
CITY SKY/WX TMP DP RH WIND PRES REMARKS
 
TEXARKANA N/A 90 75 62 SE3 N/A HX 100  
LINDEN N/A 90 73 58 S5 N/A HX 98  
CADDO LAKE N/A 91 75 59 SW5 N/A HX 102  
LUFKIN N/A 91 75 59 MISG N/A HX 102  
N SABINE NF N/A 91 73 55 MISG N/A HX 100  

 
 
SUPPLEMENTAL OBSERVATIONS ARE A COLLECTION OF AUTOMATED INSTRUMENTS  
THAT ARE MAINTAINED BY A VARIETY OF FEDERAL AND STATE AGENCIES.  
CERTAIN ELEMENTS...SUCH AS HUMIDITY VALUES AND SUSTAINED WIND  
SPEEDS...MAY BE APPROXIMATED.  
 
 
 
CLICK HERE TO GO TO PREVIOUS BULLETINS.

The Nexlab TX Page Main Text Page